Cecil Field, FL

6:04 PM EDT on May 29, 2017 (GMT -0400)
Cecil

Weather History for KVQQ - July, 2013

Change the Weather History Date:

Monday, July 8, 2013

  Actual Average (KNIP) Record (KNIP)
Temperature  
Mean Temperature 78 °F -  
Max Temperature 87 °F 88 °F 100 °F (2016)
Min Temperature 68 °F 73 °F 71 °F (2004)
Cooling Degree Days 12    
Growing Degree Days 28 (Base 50)    
Moisture  
Dew Point 72 °F    
Average Humidity 90    
Maximum Humidity 100    
Minimum Humidity 58    
Precipitation  
Precipitation 0.00 in - - ()
Sea Level Pressure  
Sea Level Pressure 30.16 in    
Wind  
Wind Speed 2 mph (East)    
Max Wind Speed 14 mph    
Max Gust Speed -    
Visibility 8 miles    
Events      
Averages and records for this station are not official NWS values.
T = Trace of Precipitation, MM = Missing Value Source: NWS Daily Summary

Daily Weather History Graph

Daily Weather History Graph

Search for Another Location

Airport or City:

Trip Planner

Search our weather history database for the weather conditions in past years. The results will help you decide how hot, cold, wet, or windy it might be!

Date:

Astronomy

Jul. 08, 2013 Rise Set
Actual Time 6:32 AM EDT 8:32 PM EDT
Civil Twilight 6:05 AM EDT 8:59 PM EDT
Nautical Twilight 5:32 AM EDT 9:32 PM EDT
Astronomical Twilight 4:57 AM EDT 10:07 PM EDT
Moon 6:54 AM EDT (7/8) 8:41 PM EDT (7/8)
Length of Visible Light 14h 54m
Length of Day
13h 59m
New Moon, 0% of the Moon is Illuminated
Jul 8
New Moon
Jul 15
First Quarter
Jul 22
Full
Jul 29
Last Quarter
Aug 6
New

Hourly Weather History & Observations

Time (EDT) Temp. Heat Index Dew Point Humidity Pressure Visibility Wind Dir Wind Speed Gust Speed Precip Events Conditions
12:15 AM 71.6 °F - 71.6 °F 100% 30.17 in 3.0 mi Calm Calm - N/A   Clear
12:35 AM 71.6 °F - 71.6 °F 100% 30.16 in 9.0 mi Calm Calm - N/A   Clear
12:55 AM 71.6 °F - 71.6 °F 100% 30.16 in 7.0 mi Calm Calm - N/A   Clear
1:15 AM 71.6 °F - 71.6 °F 100% 30.15 in 7.0 mi Calm Calm - N/A   Clear
1:35 AM 71.6 °F - 71.6 °F 100% 30.15 in 5.0 mi Calm Calm - N/A   Clear
1:55 AM 71.6 °F - 71.6 °F 100% 30.15 in 5.0 mi Calm Calm - N/A   Clear
2:15 AM 71.6 °F - 71.6 °F 100% 30.15 in 6.0 mi Calm Calm - N/A   Clear
2:35 AM 69.8 °F - 69.8 °F 100% 30.15 in 5.0 mi Calm Calm - N/A   Clear
2:55 AM 69.8 °F - 69.8 °F 100% 30.15 in 5.0 mi Calm Calm - N/A   Clear
3:15 AM 69.8 °F - 69.8 °F 100% 30.15 in 5.0 mi Calm Calm - N/A   Clear
3:35 AM 69.8 °F - 69.8 °F 100% 30.14 in 6.0 mi Calm Calm - N/A   Clear
3:55 AM 68.0 °F - 68.0 °F 100% 30.15 in 4.0 mi Calm Calm - N/A   Clear
4:15 AM 68.0 °F - 68.0 °F 100% 30.15 in 5.0 mi Calm Calm - N/A   Clear
4:35 AM 68.0 °F - 68.0 °F 100% 30.15 in 5.0 mi Calm Calm - N/A   Clear
4:55 AM 68.0 °F - 68.0 °F 100% 30.15 in 6.0 mi Calm Calm - N/A   Clear
5:15 AM 68.0 °F - 68.0 °F 100% 30.15 in 7.0 mi Calm Calm - N/A   Clear
5:35 AM 68.0 °F - 68.0 °F 100% 30.15 in 5.0 mi Calm Calm - N/A   Clear
5:55 AM 68.0 °F - 68.0 °F 100% 30.16 in 4.0 mi Calm Calm - N/A   Clear
6:15 AM 68.0 °F - 68.0 °F 100% 30.16 in 7.0 mi Calm Calm - N/A   Clear
6:50 AM 68.0 °F - 68.0 °F 100% 30.17 in 7.0 mi Calm Calm - N/A   Clear
7:50 AM 73.4 °F - 73.4 °F 100% 30.18 in 10.0 mi North 4.6 mph - N/A   Scattered Clouds
8:50 AM 77.0 °F - 77.0 °F 100% 30.19 in 10.0 mi Calm Calm - N/A   Partly Cloudy
9:50 AM 82.4 °F 89.5 °F 75.2 °F 79% 30.19 in 10.0 mi ESE 5.8 mph - N/A   Scattered Clouds
10:50 AM 84.2 °F 92.3 °F 75.2 °F 74% 30.20 in 10.0 mi East 5.8 mph - N/A   Scattered Clouds
11:50 AM 86.0 °F 93.4 °F 73.4 °F 66% 30.20 in 10.0 mi East 5.8 mph - N/A   Mostly Cloudy
12:50 PM 86.0 °F 93.4 °F 73.4 °F 66% 30.18 in 10.0 mi East 8.1 mph - N/A   Mostly Cloudy
1:50 PM 87.8 °F 95.6 °F 73.4 °F 62% 30.17 in 10.0 mi ESE 9.2 mph - N/A   Mostly Cloudy
2:50 PM 87.8 °F 95.6 °F 73.4 °F 62% 30.16 in 10.0 mi East 11.5 mph - N/A   Mostly Cloudy
3:50 PM 87.8 °F 95.6 °F 73.4 °F 62% 30.15 in 10.0 mi East 9.2 mph - N/A   Mostly Cloudy
4:50 PM 87.8 °F 93.8 °F 71.6 °F 58% 30.13 in 10.0 mi ESE 9.2 mph - N/A   Scattered Clouds
5:50 PM 87.8 °F 95.6 °F 73.4 °F 62% 30.11 in 10.0 mi SE 13.8 mph - N/A   Partly Cloudy
6:50 PM 86.0 °F 93.4 °F 73.4 °F 66% 30.12 in 10.0 mi ESE 13.8 mph - N/A   Clear
7:50 PM 82.4 °F 88.2 °F 73.4 °F 74% 30.13 in 10.0 mi East 9.2 mph - N/A   Clear
8:15 PM 80.6 °F 85.4 °F 73.4 °F 79% 30.15 in 10.0 mi Calm Calm - N/A   Clear
8:35 PM 80.6 °F 85.4 °F 73.4 °F 79% 30.15 in 10.0 mi Calm Calm - N/A   Clear
8:55 PM 77.0 °F - 73.4 °F 89% 30.15 in 10.0 mi Calm Calm - N/A   Clear
9:15 PM 75.2 °F - 73.4 °F 94% 30.15 in 10.0 mi Calm Calm - N/A   Clear
9:35 PM 75.2 °F - 73.4 °F 94% 30.16 in 10.0 mi Calm Calm - N/A   Clear
9:55 PM 73.4 °F - 73.4 °F 100% 30.17 in 10.0 mi Calm Calm - N/A   Clear
10:15 PM 73.4 °F - 73.4 °F 100% 30.17 in 10.0 mi Calm Calm - N/A   Clear
10:35 PM 73.4 °F - 73.4 °F 100% 30.18 in 10.0 mi Calm Calm - N/A   Clear
10:55 PM 73.4 °F - 73.4 °F 100% 30.19 in 10.0 mi Calm Calm - N/A   Clear
11:15 PM 75.2 °F - 75.2 °F 100% 30.19 in 9.0 mi Calm Calm - N/A   Clear
11:35 PM 75.2 °F - 73.4 °F 94% 30.19 in 10.0 mi Calm Calm - N/A   Clear
11:55 PM 75.2 °F - 75.2 °F 100% 30.19 in 10.0 mi Calm Calm - N/A   Clear